Home > Time Zones > World Clock > Weather > France > Lyon > Past weeks

Flag for France Weather past 2 weeks in Lyon, France

Now
61 °F

Clear.


Feels Like: 61 °F
Forecast: 47 / 53 °F
Wind: 2 mph from North

Location: Lyon / Bron

Current Time: Oct 21, 2014 at 3:25:37 AM

Latest Report: Oct 21, 2014 at 3:00 AM


Visibility: 6 mi

Pressure: 30.07 "Hg

Humidity: 88%

Dew point: 57 °F

Location of LyonLocation

Historic Weather in Lyon — Graph

°F

Lyon temperature yesterday

Maximum temperature yesterday: 77 °F (at 3:00 PM)
Minimum temperature yesterday: 57 °F (at 5:00 AM)
Average temperature yesterday: 66 °F

Past Weeks' High & Low Weather Summary

 TemperatureHumidityPressure
High79 °F (Oct 9, 1:00 PM)100% (Oct 12, 2:30 AM)30.24 "Hg (Oct 12, 2:30 AM)
Low46 °F (Oct 6, 6:30 AM)42% (Oct 9, 1:00 PM)29.71 "Hg (Oct 12, 5:30 PM)
Average64 °F78%29.93 "Hg
* Reported Oct 6 2:00 AM — Oct 21 2:00 AM, Lyon, Weather by CustomWeather, © 2014

Note: Actual official high and low records may vary slightly from our data, if they occured in-between our weather recording intervals... More about our weather records

Advertising

Lyon weather history for previous 24 hours

 ConditionsComfort  
Time TempWeatherWind HumidityBarometerVisibility
2:00 AM
Oct 21
63 °FClear.5 mph88%30.07 "HgN/A
1:30 AM64 °FClear.6 mph83%30.07 "HgN/A
1:00 AM64 °FClear.3 mph83%30.07 "HgN/A
12:30 AM64 °FClear.3 mph83%30.07 "HgN/A
12:00 AM64 °FClear.5 mph83%30.07 "HgN/A
11:30 PM
Oct 20
64 °FClear.5 mph83%30.07 "HgN/A
11:00 PM64 °FClear.2 mph88%30.07 "HgN/A
10:30 PM66 °FClear.3 mph83%30.07 "HgN/A
10:00 PM66 °FClear.2 mph83%30.07 "HgN/A
9:30 PM66 °FClear.No wind78%30.07 "HgN/A
9:00 PM66 °FClear.2 mph78%30.07 "HgN/A
8:30 PM68 °FClear.No wind78%30.07 "HgN/A
8:00 PM68 °FClear.No wind73%30.07 "HgN/A
7:30 PM70 °FClear.2 mph69%30.07 "HgN/A
7:00 PM72 °FClear.No wind65%30.07 "Hg4 mi
6:30 PM73 °FClear.No wind61%30.07 "HgN/A
6:00 PM73 °FClear.No wind61%30.07 "HgN/A
5:30 PM73 °FClear.5 mph61%30.07 "HgN/A
5:00 PM75 °FClear.3 mph61%30.07 "HgN/A
4:30 PM75 °FClear.5 mph61%30.07 "HgN/A
4:00 PM77 °FClear.3 mph57%30.07 "HgN/A
3:30 PM77 °FClear.3 mph54%30.07 "HgN/A
3:00 PM77 °FClear.3 mph54%30.07 "HgN/A
2:30 PM75 °FClear.3 mph57%30.09 "HgN/A
2:00 PM75 °FClear.5 mph61%30.09 "HgN/A
1:30 PM73 °FClear.6 mph65%30.12 "HgN/A
1:00 PM72 °FClear.5 mph65%30.15 "HgN/A
12:30 PM70 °FClear.3 mph73%30.15 "HgN/A
12:00 PM68 °FClear.5 mph73%30.15 "HgN/A
11:30 AM66 °FClear.5 mph73%30.18 "HgN/A
11:00 AM64 °FClear.3 mph78%30.18 "HgN/A
10:30 AM64 °FClear.5 mph78%30.18 "HgN/A
10:00 AM63 °FClear.3 mph83%30.18 "HgN/A
9:30 AM61 °FClear.3 mph88%30.18 "HgN/A
9:00 AM59 °FClear.2 mph94%30.18 "HgN/A
8:30 AM59 °FClear.No wind94%30.18 "Hg5 mi
8:00 AM57 °FFog.2 mph94%30.18 "Hg1 mi
7:30 AM57 °FClear.No wind94%30.18 "Hg5 mi
7:00 AM57 °FClear.1 mph94%30.18 "Hg6 mi
5:00 AM57 °FClear.No wind94%30.18 "Hg6 mi
4:30 AM59 °FClear.2 mph88%30.21 "HgN/A
4:00 AM59 °FClear.3 mph94%30.21 "HgN/A
3:30 AM59 °FClear.5 mph94%30.21 "HgN/A
3:00 AM59 °FClear.5 mph94%30.21 "HgN/A
Weather by CustomWeather, © 2014

See weather overviewHow to use our weather pages